Tracking 19792 objects as of 16-Jul-2019
HD Live streaming from Space Station
objects crossing your sky now

FENGYUN 1C DEB

Track FENGYUN 1C DEB now!
10-day predictions


NORAD ID: 31030
Int'l Code: 1999-025BDY
Perigee: 827.3 km
Apogee: 870.0 km
Inclination: 99.0 °
Period: 101.7 minutes
Semi major axis: 7219 km
RCS: 0.0064 m2 (small)
Launch date: May 10, 1999
Source: People's Republic of China (PRC)
Launch site: Taiyaun Space Center, China (TSC)

Note: This is SATELLITE DEBRIS
aabbcc
Your satellite tracking list
Your tracking list is empty




NASA's NSSDC Master Catalog

Two Line Element Set (TLE):
1 31030U 99025BDY 19196.57628988 +.00000323 +00000-0 +18902-3 0  9992
2 31030 098.9878 227.5095 0029521 292.8808 219.0323 14.15235446635160
Source of the keplerian elements: AFSPC